Location: Aufkirchen
(47.9603°N, 11.3653°E)
Time: 13:33:46
(UTC+01:00)

Transit 2A Rocket - Pass Details

Date: 11 December 2020
Orbit: 592 x 910 km, 66.7° (Epoch: 21 January)

Event Time Altitude Azimuth Distance (km) Brightness Sun altitude
Rises 01:05:25 0° 253° (WSW) 3,448 - -62.5°
Reaches altitude 10° 01:08:23 10° 265° (W) 2,470 - -62.3°
Maximum altitude 01:13:06 26° 322° (NW) 1,542 - -61.9°
Drops below altitude 10° 01:17:33 10° 18° (NNE) 2,306 - -61.4°
Sets 01:20:14 0° 32° (NNE) 3,175 - -61.2°
